カタログに戻る

STARLINK-32517

運用中通信VLEO
NORAD 61980·PAYLOAD·🇺🇸 United States

打ち上げ Nov 14, 2024 から Cape Canaveral Space Force Station

Loading…

次のパス (今後24時間)

TLE

最新Source: CelesTrak SupGP

元期: Sep 15, 2026, 02:39 UTC

1 61980C 24210X   26258.11090278 -.00042024  00000+0 -15223-2 0  2580
2 61980  42.9998 190.4495 0001176 265.2885 146.4635 15.27594060    19

AllMySatでSTARLINK-32517をリアルタイム追跡

Download on the App Store